Weather History for KCPS - February, 2014

Change the Weather History Date:

Tuesday, February 4, 2014

  Actual Average Record
Temperature  
Mean Temperature 26 °F -  
Max Temperature 28 °F 39 °F 76 °F (1962)
Min Temperature 23 °F 26 °F 3 °F (2007)
Degree Days  
Heating Degree Days 40    
Moisture  
Dew Point 22 °F    
Average Humidity 86    
Maximum Humidity 93    
Minimum Humidity 69    
Precipitation  
Precipitation 0.05 in - - ()
Sea Level Pressure  
Sea Level Pressure 30.08 in    
Wind  
Wind Speed 9 mph (NNE)    
Max Wind Speed 17 mph    
Max Gust Speed 26 mph    
Visibility 4 miles    
Events Fog , Snow    
Averages and records for this station are not official NWS values.
T = Trace of Precipitation, MM = Missing Value Source: NWS Daily Summary

Daily Weather History Graph

Daily Weather History Graph

Search for Another Location

Airport or City:

Trip Planner

Search our weather history database for the weather conditions in past years. The results will help you decide how hot, cold, wet, or windy it might be!

Date:

Astronomy

Feb. 04, 2014 Rise Set
Actual Time 7:03 AM CST 5:26 PM CST
Civil Twilight 6:35 AM CST 5:54 PM CST
Nautical Twilight 6:04 AM CST 6:25 PM CST
Astronomical Twilight 5:32 AM CST 6:56 PM CST
Moon 9:45 AM CST (2/4) 11:15 PM CST (2/4)
Length of Visible Light 11h 18m
Length of Day
10h 22m
Waxing Crescent, 29% of the Moon is Illuminated
Feb 4
Waxing Crescent
Feb 6
First Quarter
Feb 14
Full
Feb 22
Last Quarter
Mar 1
New

Hourly Weather History & Observations

Time (CST) Temp. Windchill Dew Point Humidity Pressure Visibility Wind Dir Wind Speed Gust Speed Precip Events Conditions
12:53 AM 24.1 °F 19.7 °F 17.1 °F 75% 30.33 in 10.0 mi East 3.5 mph - N/A   Clear
1:53 AM 24.1 °F 17.0 °F 17.1 °F 75% 30.32 in 10.0 mi ENE 5.8 mph - N/A   Clear
2:53 AM 24.1 °F 15.2 °F 17.1 °F 75% 30.31 in 10.0 mi NE 8.1 mph - N/A   Scattered Clouds
3:53 AM 24.1 °F 17.0 °F 17.1 °F 75% 30.32 in 10.0 mi NE 5.8 mph - N/A   Overcast
4:53 AM 25.0 °F 17.1 °F 18.0 °F 75% 30.34 in 10.0 mi NE 6.9 mph - N/A   Overcast
5:53 AM 25.0 °F 16.3 °F 19.0 °F 78% 30.29 in 10.0 mi NE 8.1 mph - N/A   Overcast
6:53 AM 25.0 °F 17.1 °F 18.0 °F 75% 30.32 in 10.0 mi NE 6.9 mph - N/A   Partly Cloudy
7:53 AM 25.0 °F 15.5 °F 19.0 °F 78% 30.30 in 9.0 mi NNE 9.2 mph - N/A   Clear
8:53 AM 26.1 °F 18.4 °F 19.0 °F 75% 30.30 in 10.0 mi NNE 6.9 mph - N/A   Clear
9:53 AM 26.1 °F 18.4 °F 19.9 °F 78% 30.29 in 10.0 mi NNE 6.9 mph - N/A   Overcast
10:53 AM 28.0 °F 20.0 °F 19.9 °F 72% 30.25 in 10.0 mi East 8.1 mph - N/A   Overcast
11:53 AM 28.9 °F 21.9 °F 19.9 °F 69% 30.24 in 10.0 mi East 6.9 mph - N/A   Overcast
12:53 PM 28.9 °F 18.6 °F 21.9 °F 75% 30.14 in 2.5 mi NNE 12.7 mph - 0.00 in Snow Light Snow
1:18 PM 28.4 °F 17.0 °F 23.0 °F 80% 30.11 in 2.5 mi NE 15.0 mph - 0.00 in Snow Light Snow
1:28 PM 26.6 °F 16.2 °F 23.0 °F 86% 30.11 in 0.5 mi NE 11.5 mph - 0.00 in Fog , Snow Snow
1:36 PM 26.6 °F 15.7 °F 24.8 °F 93% 30.11 in 0.5 mi NE 12.7 mph - 0.00 in Fog , Snow Snow
1:53 PM 27.0 °F 15.2 °F 24.1 °F 89% 30.11 in 1.0 mi NE 15.0 mph - 0.00 in Snow Light Snow
2:00 PM 26.6 °F 15.2 °F 24.8 °F 93% 30.09 in 1.0 mi NE 13.8 mph - 0.00 in Snow Light Snow
2:22 PM 26.6 °F 15.2 °F 24.8 °F 93% 30.09 in 0.8 mi NE 13.8 mph - 0.00 in Snow Light Snow
2:27 PM 26.6 °F 15.7 °F 24.8 °F 93% 30.09 in 0.5 mi NE 12.7 mph - 0.00 in Fog , Snow Snow
2:53 PM 27.0 °F 16.1 °F 25.0 °F 92% 30.10 in 0.8 mi NE 12.7 mph - 0.00 in Snow Light Snow
2:56 PM 26.6 °F 15.7 °F 24.8 °F 93% 30.08 in 0.8 mi NE 12.7 mph - 0.00 in Snow Light Snow
3:02 PM 26.6 °F 15.7 °F 24.8 °F 93% 30.07 in 0.8 mi NE 12.7 mph - 0.00 in Snow Light Snow
3:43 PM 26.6 °F 15.2 °F 24.8 °F 93% 30.03 in 1.5 mi NE 13.8 mph 26.5 mph 0.00 in Snow Light Snow
3:53 PM 27.0 °F 16.1 °F 24.1 °F 89% 30.05 in 2.5 mi NE 12.7 mph - 0.00 in Snow Light Snow
4:00 PM 26.6 °F 16.2 °F 24.8 °F 93% 30.04 in 4.0 mi NE 11.5 mph - 0.00 in Snow Light Snow
4:09 PM 26.6 °F 15.2 °F 23.0 °F 86% 30.02 in 2.5 mi NE 13.8 mph - 0.00 in Snow Light Snow
4:17 PM 26.6 °F 16.8 °F 24.8 °F 93% 30.03 in 1.0 mi NE 10.4 mph - 0.00 in Snow Light Snow
4:43 PM 26.6 °F 15.7 °F 23.0 °F 86% 30.02 in 0.5 mi NE 12.7 mph - 0.01 in Fog , Snow Snow
4:53 PM 26.1 °F 14.5 °F 24.1 °F 92% 30.02 in 0.5 mi NE 13.8 mph - 0.01 in Fog , Snow Snow
5:25 PM 24.8 °F 12.4 °F 23.0 °F 93% 29.97 in 1.0 mi NE 15.0 mph - 0.00 in Snow Light Snow
5:42 PM 26.6 °F 15.2 °F 23.0 °F 86% 29.97 in 3.0 mi NE 13.8 mph 23.0 mph 0.00 in Snow Light Snow
5:53 PM 26.1 °F 13.1 °F 23.0 °F 88% 29.98 in 5.0 mi NE 17.3 mph - 0.00 in Snow Light Snow
6:13 PM 26.6 °F 15.2 °F 23.0 °F 86% 29.98 in 9.0 mi NE 13.8 mph - 0.00 in   Overcast
6:53 PM 25.0 °F 15.5 °F 23.0 °F 92% 29.99 in 1.8 mi NE 9.2 mph - 0.00 in Snow Light Snow
7:07 PM 24.8 °F 17.9 °F 23.0 °F 93% 29.99 in 1.8 mi NNE 5.8 mph - 0.00 in Snow Light Snow
7:53 PM 25.0 °F 17.1 °F 23.0 °F 92% 30.00 in 1.0 mi NNE 6.9 mph - 0.01 in Snow Light Snow
7:55 PM 24.8 °F 16.9 °F 23.0 °F 93% 29.98 in 1.0 mi NNE 6.9 mph - 0.00 in Snow Light Snow
8:32 PM 24.8 °F 15.3 °F 23.0 °F 93% 29.97 in 1.0 mi North 9.2 mph - 0.02 in Snow Light Snow
8:40 PM 24.8 °F 16.1 °F 23.0 °F 93% 29.97 in 0.8 mi North 8.1 mph - 0.02 in Snow Light Snow
8:53 PM 24.1 °F 13.1 °F 21.9 °F 91% 29.99 in 0.8 mi North 11.5 mph - 0.02 in Snow Light Snow
9:00 PM 24.8 °F 15.3 °F 21.2 °F 86% 29.97 in 1.0 mi North 9.2 mph - 0.00 in Snow Light Snow
9:13 PM 24.8 °F 14.0 °F 21.2 °F 86% 29.96 in 1.0 mi North 11.5 mph - 0.01 in Snow Light Snow
9:45 PM 24.8 °F 14.6 °F 21.2 °F 86% 29.96 in 1.5 mi North 10.4 mph - 0.01 in Snow Light Snow
9:53 PM 23.0 °F 11.7 °F 21.0 °F 92% 29.97 in 1.5 mi North 11.5 mph - 0.01 in Snow Light Snow
10:15 PM 23.0 °F 12.4 °F 21.2 °F 93% 29.95 in 2.0 mi North 10.4 mph - 0.00 in Snow Light Snow
10:42 PM 24.8 °F 16.1 °F 21.2 °F 86% 29.98 in 2.5 mi North 8.1 mph - 0.00 in Snow Light Snow
10:53 PM 24.1 °F 14.4 °F 21.0 °F 88% 30.00 in 2.0 mi NNW 9.2 mph - 0.00 in Snow Light Snow
11:07 PM 24.8 °F 14.0 °F 21.2 °F 86% 29.97 in 3.0 mi North 11.5 mph - 0.00 in Snow Light Snow
11:17 PM 23.0 °F 11.7 °F 21.2 °F 93% 29.95 in 1.8 mi North 11.5 mph - 0.00 in Snow Light Snow
11:22 PM 23.0 °F 11.7 °F 21.2 °F 93% 29.94 in 2.0 mi North 11.5 mph - 0.00 in Snow Light Snow
11:53 PM 23.0 °F 11.7 °F 19.9 °F 88% 29.96 in 1.8 mi North 11.5 mph - 0.00 in Snow Light Snow